Location: Diguira
(13.1838°N, 4.9109°W)
Time: 15:06:13
(UTC+00:00)

Cosmos 1271 Rocket - Pass Details

Date: 18 September 2020
Orbit: 498 x 545 km, 81.2° (Epoch: 19 October)

Event Time Altitude Azimuth Distance (km) Brightness Sun altitude
Rises 18:34:48 0° 357° (N) 2,694 6.4 -4.8°
Reaches altitude 10° 18:36:59 10° 359° (N) 1,799 5.5 -5.4°
Maximum altitude 18:40:56 73° 84° (E) 563 2.7 -6.3°
Drops below altitude 10° 18:44:50 10° 169° (S) 1,778 5.3 -7.3°
Sets 18:46:58 0° 171° (S) 2,660 6.2 -7.8°
